Update: The Long March 2F CZ-2F rocket body re-entered the Earths atmosphere on the 28th June, 2012 @ 08:13 GMT ± 1 minute.
Inclination: 42.77°Revolution Number: 195Size: 10 metresPredicted Location: 37°N, 63°E
Update: The Long March 2F CZ-2F rocket body is predicted to re-enter the Earths atmosphere on the 28th June, 2012 @ 08:00 GMT ± 2 hours.
CZ-2F RB 1 38462U 12032B 12180.14206579 .08545520 91882-5 13182-3 0 606 2 38462 042.7741 338.9933 0016816 242.5382 117.9308 16.46975780 1908
Period: 88.45 minutesInclination: 42.77°Apogee: 223 kmPerigee: 172 km Revolution Number: 195Size: 10 metresPredicted Location: 17°N, 322.2°E
Update: The Long March 2F CZ-2F rocket body is predicted to re-enter the Earths atmosphere on the 28th June, 2012 @ 08:00 GMT ± 8 hours.
CZ-2F RB 1 38462U 12032B 12179.89911813 .07180835 90614-5 22212-3 0 597 2 38462 042.7741 340.6295 0022353 240.6570 119.2403 16.42568143 1863
Period: 88.45 minutesInclination: 42.77°Apogee: 223 kmPerigee: 172 km Revolution Number: 194Predicted Location: 22.5°N, 329°E
Update: The Long March 2F CZ-2F rocket body is predicted to re-enter the Earths atmosphere on the 28th June, 2012 @ 07:40 GMT ± 16 hours.
CZ-2F RB 1 38462U 12032B 12179.16774053 .02972756 89486-5 31073-3 0 541 2 38462 042.7769 345.5161 0030470 223.9232 136.6265 16.34896802 1740
Period: 88.45 minutesInclination: 42.78°Apogee: 223 kmPerigee: 172 km Revolution Number: 192Predicted Location: 17.8°S, 286°E
Update: The Long March 2F CZ-2F rocket body is predicted to re-enter the Earths atmosphere on the 28th June, 2012 @ 10:40 GMT ± 24 hours.
CZ-2F RB 1 38462U 12032B 12177.94328327 .01641667 88410-5 32278-3 0 495 2 38462 042.7776 353.6282 0039067 204.0488 155.7139 16.28119854 1544
Period: 88.54 minutesInclination: 42.78°Apogee: 230 kmPerigee: 174 km Revolution Number: 194Predicted Location: 5.2°S, 254.5°E
A Long March 2F CZ-2F rocket body that was launched on the 16th June, 2012, from the Jiuquan Launch Centre, for the Shenzhou-9 mission, is predicted to re-enter the Earths atmosphere on the 28th June, 2012 @ 09:00 GMT ± 72 hours.
CZ-2F RB 1 38462U 12032B 12176.53048581 .01245516 87635-5 33847-3 0 416 2 38462 042.7794 002.8703 0049177 194.4090 165.7211 16.23566143 1318
Period: 88.84 minutesInclination: 42.78°Apogee: 254 kmPerigee: 181 km Revolution Number: 193Predicted Location: 9.1°S, 273.1°E